Waarnemingen

Advertentie
Mijn weer
Leucate/Semaphore, Frankrijk (7666): temperatuur & dauwpunt: 17.10.2017 02:00:00 - 23.10.2017 02:00:00 (CEST)Leucate/Semaphore, Frankrijk (7666): windsnelheid & windstoten: 17.10.2017 02:00:00 - 23.10.2017 02:00:00 (CEST)Leucate/Semaphore, Frankrijk (7666): windrichting: 17.10.2017 02:00:00 - 23.10.2017 02:00:00 (CEST)Leucate/Semaphore, Frankrijk (7666): luchtdruk: 17.10.2017 02:00:00 - 23.10.2017 02:00:00 (CEST)Leucate/Semaphore, Frankrijk (7666): zicht: 17.10.2017 02:00:00 - 23.10.2017 02:00:00 (CEST)Leucate/Semaphore, Frankrijk (7666): neerslag: 17.10.2017 02:00:00 - 23.10.2017 02:00:00 (CEST)
Datum & Tijd tt [°C] td [°C] ff [km/u] ff [kn] fx [km/u] fx [kn] dd ppp [hPa] vv [km] rr [mm]
23.10.2017 02:00:00 13,7 8,7 19 11 45 25 NW 1026,2 - 0,0
23.10.2017 01:00:00 14,2 8,8 22 12 48 26 NW 1026,1 - 0,0
23.10.2017 00:00:00 14,4 8,6 19 10 48 26 NW 1026,1 - 0,0
22.10.2017 23:00:00 14,2 8,6 20 11 45 25 NW 1026,0 - 0,0
22.10.2017 22:00:00 13,9 8,1 21 12 45 25 NW 1025,8 - 0,0
22.10.2017 21:00:00 14,3 8,0 27 15 53 29 WNW 1025,1 - 0,0
22.10.2017 20:00:00 14,3 8,9 21 12 58 32 NW 1024,9 30 0,0
22.10.2017 19:00:00 14,5 8,4 23 13 57 31 NW 1023,8 - 0,0
22.10.2017 18:00:00 15,3 8,8 29 16 65 35 NW 1023,6 - 0,0
22.10.2017 17:00:00 16,5 7,9 26 14 63 34 NW 1023,3 25 0,0
22.10.2017 16:00:00 17,0 8,4 24 13 74 40 NW 1023,5 - 0,0
22.10.2017 15:00:00 18,6 7,4 26 14 64 34 NW 1023,5 - 0,0
22.10.2017 14:00:00 16,9 8,3 31 17 62 33 NW 1024,2 - 0,0
22.10.2017 13:00:00 17,5 7,5 33 18 64 34 NW 1024,7 - 0,0
22.10.2017 12:00:00 16,4 8,6 33 18 67 36 NW 1025,4 - 0,0
22.10.2017 11:00:00 15,4 8,6 24 13 55 30 NW 1025,3 25 0,0
22.10.2017 10:00:00 14,8 8,5 24 13 46 25 NW 1024,9 - 0,0
22.10.2017 09:00:00 14,1 8,1 27 15 51 28 NW 1024,5 - 0,0
22.10.2017 08:00:00 13,8 8,2 31 17 77 42 NW 1023,7 15 0,0
22.10.2017 07:00:00 14,2 8,4 27 15 58 32 NW 1023,1 - 0,0
22.10.2017 06:00:00 14,6 8,5 24 13 47 26 NW 1023,4 - 0,0
22.10.2017 05:00:00 14,9 8,8 24 13 53 29 NW 1023,4 - 0,0
22.10.2017 04:00:00 15,1 8,3 26 14 64 35 NW 1023,3 - 0,0
22.10.2017 03:00:00 15,4 8,8 29 15 66 35 NW 1023,2 - 0,0
22.10.2017 02:00:00 15,7 9,1 26 14 63 34 NW 1023,5 - 0,0
22.10.2017 01:00:00 16,0 9,6 31 17 62 34 NW 1023,6 - 0,0
22.10.2017 00:00:00 16,0 10,3 29 16 68 37 NW 1023,7 - 0,0
21.10.2017 23:00:00 15,8 10,3 33 18 71 38 NW 1023,2 - 0,0
21.10.2017 22:00:00 15,8 11,0 35 19 72 39 NW 1022,5 - 0,0
21.10.2017 21:00:00 15,5 11,1 28 15 62 34 NW 1022,6 - 0,0
21.10.2017 20:00:00 15,8 11,0 32 17 72 39 NW 1021,9 - 0,0
21.10.2017 19:00:00 16,6 12,3 33 18 66 35 NW 1021,2 - 0,0
21.10.2017 18:00:00 17,7 12,4 36 20 64 35 NW 1020,7 - 0,0
21.10.2017 17:00:00 20,6 14,3 21 12 48 26 NW 1019,9 15 0,0
21.10.2017 16:00:00 22,1 14,7 23 12 46 25 NW 1019,6 - 0,0
21.10.2017 15:00:00 18,5 17,3 10 5 22 12 N 1019,6 - 0,0
21.10.2017 14:00:00 18,6 17,8 6 3 14 8 NNO 1020,1 0,5 0,0
21.10.2017 13:00:00 18,4 17,7 8 4 24 13 N 1020,8 - 0,0
21.10.2017 12:00:00 18,6 17,8 11 6 22 12 NNW 1021,1 - 0,0
21.10.2017 11:00:00 18,7 17,9 15 8 26 14 N 1020,3 - 0,0
21.10.2017 10:00:00 18,1 17,5 16 8 29 15 NNW 1020,0 - 0,0
21.10.2017 09:00:00 17,7 17,2 17 9 29 16 NNW 1019,4 - 0,0
21.10.2017 08:00:00 16,6 16,1 8 5 13 7 NW 1018,9 12 0,0
21.10.2017 07:00:00 16,6 16,1 6 3 15 8 NNO 1018,3 - 0,0
21.10.2017 06:00:00 16,8 16,2 4 2 16 8 ZO 1017,6 - 0,0
21.10.2017 05:00:00 17,4 16,8 5 3 14 7 N 1017,6 18 0,0
21.10.2017 04:00:00 17,3 16,7 4 2 14 8 O 1017,6 - 0,0
21.10.2017 03:00:00 17,6 17,0 4 2 14 8 NNO 1018,2 - 0,0
21.10.2017 02:00:00 17,3 16,5 5 3 11 6 N 1018,4 - 0,0
21.10.2017 01:00:00 17,7 16,9 5 3 14 8 ONO 1018,6 - 0,0
21.10.2017 00:00:00 18,0 17,2 7 4 14 8 OZO 1018,9 - 0,0
20.10.2017 23:00:00 18,1 17,5 7 4 13 7 ZZO 1019,3 - 0,0
20.10.2017 22:00:00 18,1 17,3 5 3 9 5 OZO 1019,2 - 0,0
20.10.2017 21:00:00 18,2 17,4 8 4 10 6 OZO 1019,0 - 0,0
20.10.2017 20:00:00 18,2 17,2 4 2 8 5 NNW 1019,1 - 0,0
20.10.2017 19:00:00 18,4 17,4 4 2 12 6 O 1018,4 - 0,0
20.10.2017 18:00:00 18,7 17,5 4 2 14 8 NO 1018,1 - 0,0
20.10.2017 17:00:00 19,3 17,6 6 4 11 6 N 1018,2 15 0,0
20.10.2017 16:00:00 19,9 17,9 5 3 - - NNO 1018,1 - 0,0
20.10.2017 15:00:00 20,2 17,6 - - - - - 1018,1 - 0,0
20.10.2017 14:00:00 19,7 17,1 - - - - - 1018,1 - 0,0
20.10.2017 13:00:00 20,0 17,4 - - - - - 1018,6 - 0,0
20.10.2017 12:00:00 19,2 16,8 - - - - - 1018,4 - 0,0
20.10.2017 11:00:00 18,9 16,9 13 7 24 13 NNW 1018,0 15 0,0
20.10.2017 10:00:00 17,3 16,2 14 8 23 12 NNW 1017,6 - 0,0
20.10.2017 09:00:00 16,9 15,9 15 8 22 12 NNW 1017,0 - 0,0
20.10.2017 08:00:00 16,6 15,6 16 8 24 13 NW 1016,1 15 0,0
20.10.2017 07:00:00 16,5 15,4 15 8 29 16 NW 1015,5 - 0,0
20.10.2017 06:00:00 16,4 15,3 16 9 24 13 NNW 1015,0 - 0,0
20.10.2017 05:00:00 16,8 15,5 9 5 17 9 NNW 1014,7 15 0,0
20.10.2017 04:00:00 17,1 15,6 8 4 13 7 NW 1014,6 - 0,0
20.10.2017 03:00:00 18,1 16,4 11 6 27 14 ZZO 1014,4 - 0,0
20.10.2017 02:00:00 17,9 16,4 26 14 37 20 ZO 1013,7 - 0,0
20.10.2017 01:00:00 18,1 16,6 31 17 40 22 OZO 1013,1 - 0,0
20.10.2017 00:00:00 18,3 17,0 11 6 42 23 OZO 1012,9 - 0,0
19.10.2017 23:00:00 18,5 17,0 28 15 39 21 OZO 1012,6 - 0,6
19.10.2017 22:00:00 18,3 17,0 27 14 45 24 O 1012,3 - 0,0
19.10.2017 21:00:00 18,5 17,0 36 19 46 25 OZO 1011,6 - 0,0
19.10.2017 20:00:00 18,6 17,1 37 20 50 27 OZO 1011,3 15 0,0
19.10.2017 19:00:00 18,4 17,2 36 19 48 26 OZO 1010,4 - 11,0
19.10.2017 18:00:00 18,7 16,5 6 3 19 10 ONO 1010,4 15 1,2
19.10.2017 17:00:00 18,2 16,5 9 5 26 14 ZO 1010,4 - 1,6
19.10.2017 16:00:00 18,5 17,2 12 7 19 10 ZZO 1010,3 - 0,0
19.10.2017 15:00:00 18,6 17,1 16 8 24 13 ZZO 1010,7 - 0,0
19.10.2017 14:00:00 18,4 16,9 22 12 38 20 ZZO 1011,1 15 0,0
19.10.2017 13:00:00 18,6 17,3 16 9 27 15 ZO 1011,6 - 0,4
19.10.2017 12:00:00 18,2 16,9 18 10 23 12 OZO 1011,7 - 0,0
19.10.2017 11:00:00 18,0 16,2 9 5 22 12 OZO 1011,6 - 0,0
19.10.2017 10:00:00 17,4 15,7 18 10 36 20 O 1011,4 - 0,0
19.10.2017 09:00:00 16,9 15,6 27 14 44 24 O 1011,1 - 0,3
19.10.2017 08:00:00 16,3 15,3 26 14 41 22 O 1011,0 15 5,4
19.10.2017 07:00:00 16,8 15,7 21 11 42 23 O 1010,7 - 0,2
19.10.2017 06:00:00 16,6 15,6 31 17 44 24 OZO 1010,4 - 2,6
19.10.2017 05:00:00 16,6 15,8 29 15 35 19 ZO 1011,1 15 0,6
19.10.2017 04:00:00 16,5 15,9 8 5 66 36 ZO 1010,8 - 5,4
19.10.2017 03:00:00 18,1 16,3 17 9 45 25 ZO 1011,0 - 0,0
19.10.2017 02:00:00 17,7 15,7 29 15 50 27 ZO 1011,0 - 0,0
19.10.2017 01:00:00 18,3 16,6 13 7 42 23 ZO 1011,3 - 0,0
19.10.2017 00:00:00 18,5 17,8 29 16 37 20 OZO 1011,1 - 1,2
18.10.2017 23:00:00 18,6 17,9 34 18 56 30 ZZO 1011,9 - 0,0
18.10.2017 22:00:00 19,1 18,4 48 26 58 31 ZO 1011,5 - 0,0
18.10.2017 21:00:00 19,0 18,0 47 25 56 30 ZO 1011,2 - 0,0
18.10.2017 20:00:00 18,9 17,9 43 23 53 29 ZZO 1011,2 15 0,0
18.10.2017 19:00:00 18,5 17,5 34 18 64 34 OZO 1010,8 - 0,0
18.10.2017 18:00:00 19,6 17,7 47 26 63 34 ZO 1010,5 - 0,0
18.10.2017 17:00:00 18,9 17,4 44 24 62 33 ZO 1010,9 15 0,0
18.10.2017 16:00:00 19,1 17,6 43 23 57 31 ZO 1011,3 - 0,0
18.10.2017 15:00:00 19,7 17,5 51 27 65 35 ZZO 1011,3 - 0,0
18.10.2017 14:00:00 18,9 17,4 40 22 73 40 ZO 1012,2 15 0,0
18.10.2017 13:00:00 19,3 17,4 48 26 70 38 ZO 1012,5 - 0,0
18.10.2017 12:00:00 19,3 17,6 47 26 63 34 ZO 1013,3 - 0,0
18.10.2017 11:00:00 18,9 17,6 39 21 54 29 ZO 1014,0 10 0,0
18.10.2017 10:00:00 18,7 17,7 41 22 51 28 ZO 1014,1 - 0,0
18.10.2017 09:00:00 18,2 17,4 42 23 53 28 ZO 1014,0 - 0,0
18.10.2017 08:00:00 18,2 17,2 38 21 46 25 ZO 1014,3 12 0,0
18.10.2017 07:00:00 18,4 16,7 37 20 44 24 ZZO 1014,5 - 0,0
18.10.2017 06:00:00 18,3 16,6 35 19 50 27 ZO 1014,8 - 0,0
18.10.2017 05:00:00 18,4 16,6 40 22 53 29 ZO 1015,0 15 0,0
18.10.2017 04:00:00 18,4 16,7 41 22 51 27 ZO 1015,6 - 0,0
18.10.2017 03:00:00 18,4 16,7 38 20 51 27 ZO 1016,2 - 0,0
18.10.2017 02:00:00 18,1 16,6 31 17 46 25 OZO 1016,9 - 0,0
18.10.2017 01:00:00 18,5 16,3 35 19 44 24 ZZO 1017,3 - 0,0
18.10.2017 00:00:00 18,4 17,1 40 21 50 27 ZO 1017,6 - 0,0
17.10.2017 23:00:00 18,4 17,2 34 18 52 28 ZO 1017,9 - 0,0
17.10.2017 22:00:00 18,6 17,3 42 23 54 29 ZO 1017,7 - 0,0
17.10.2017 21:00:00 18,6 17,3 45 25 54 29 ZO 1017,8 - 0,0
17.10.2017 20:00:00 18,6 16,9 45 25 54 29 ZO 1018,1 12 0,0
17.10.2017 19:00:00 18,5 16,8 40 22 58 31 OZO 1018,9 - 0,0
17.10.2017 18:00:00 18,8 16,8 45 24 54 29 OZO 1019,2 - 0,0
17.10.2017 17:00:00 18,6 16,9 43 23 57 31 OZO 1019,7 12 0,0
17.10.2017 16:00:00 18,8 16,9 41 22 51 28 OZO 1020,2 - 0,0
17.10.2017 15:00:00 18,7 17,0 40 22 55 30 OZO 1020,7 - 0,0
17.10.2017 14:00:00 18,6 16,9 44 24 54 29 OZO 1022,0 - 0,0
17.10.2017 13:00:00 18,6 16,7 41 22 54 29 OZO 1022,2 - 0,0
17.10.2017 12:00:00 18,5 16,8 40 21 49 26 OZO 1022,6 - 0,0
17.10.2017 11:00:00 18,5 16,7 36 19 45 24 OZO 1023,2 - 0,0
17.10.2017 10:00:00 18,3 16,5 35 19 43 23 OZO 1023,2 - 0,0
17.10.2017 09:00:00 17,8 16,5 32 17 40 22 OZO 1023,2 - 0,0
17.10.2017 08:00:00 17,8 16,7 35 19 43 23 OZO 1022,9 15 0,0
17.10.2017 07:00:00 17,9 16,8 35 19 45 25 OZO 1023,0 - 0,0
17.10.2017 06:00:00 18,0 16,5 37 20 45 24 OZO 1023,2 - 0,0
17.10.2017 05:00:00 18,2 16,7 36 19 46 25 ZO 1023,1 15 0,0
17.10.2017 04:00:00 18,1 16,8 36 19 44 24 ZO 1023,6 - 0,0
17.10.2017 03:00:00 18,1 16,9 35 19 44 24 ZO 1024,0 - 0,2
17.10.2017 02:00:00 18,1 17,1 35 19 41 22 OZO 1024,4 - 0,0

tt = temperatuur
td = dauwpunt
ff = windsnelheid
fx = windstoten
dd = windrichting
ppp = luchtdruk
vv = zicht
rr = neerslag

Weerstations in de omgeving